Weather History for Blythe, CA

Change the Weather History Date:

Monday, December 16, 2013

  Actual Average Record
Temperature  
Mean Temperature 60 °F -  
Max Temperature 73 °F 64 °F 84 °F (1980)
Min Temperature 48 °F 40 °F 27 °F (2005)
Degree Days  
Heating Degree Days 4    
Growing Degree Days 10 (Base 50)    
Moisture  
Dew Point 26 °F    
Average Humidity 29    
Maximum Humidity 43    
Minimum Humidity 15    
Precipitation  
Precipitation 0.00 in - - ()
Sea Level Pressure  
Sea Level Pressure 30.18 in    
Wind  
Wind Speed 5 mph (WNW)    
Max Wind Speed 7 mph    
Max Gust Speed -    
Visibility 10 miles    
Events      
Averages and records for this station are not official NWS values.
T = Trace of Precipitation, MM = Missing Value Source: NWS Daily Summary

Daily Weather History Graph

Daily Weather History Graph

Search for Another Location

Airport:

Trip Planner

Search our weather history database for the weather conditions in past years. The results will help you decide how hot, cold, wet, or windy it might be!

Date:

Astronomy

Dec. 16, 2013 Rise Set
Actual Time 6:36 AM PST 4:32 PM PST
Civil Twilight 6:09 AM PST 5:00 PM PST
Nautical Twilight 5:38 AM PST 5:31 PM PST
Astronomical Twilight 5:07 AM PST 6:01 PM PST
Moon 4:23 PM PST (12/16) 5:51 AM PST (12/16)
Length of Visible Light 10h 51m
Length of Day
9h 55m
Full, 100% of the Moon is Illuminated
Dec 16
Full
Dec 17
Full
Dec 25
Last Quarter
Jan 1
New
Jan 7
First Quarter

Hourly Weather History & Observations

Time (PST) Temp. Dew Point Humidity Pressure Visibility Wind Dir Wind Speed Gust Speed Precip Events Conditions
12:52 AM 50.0 °F 27.0 °F 41% 30.19 in 10.0 mi ENE 6.9 mph - N/A   Clear
1:52 AM 48.9 °F 27.0 °F 43% 30.20 in 10.0 mi WSW 6.9 mph - N/A   Clear
2:52 AM 48.9 °F 25.0 °F 39% 30.19 in 10.0 mi NNW 3.5 mph - N/A   Clear
3:52 AM 50.0 °F 25.0 °F 38% 30.19 in 10.0 mi West 3.5 mph - N/A   Clear
4:52 AM 51.1 °F 24.1 °F 35% 30.19 in 10.0 mi Calm Calm - N/A   Clear
5:52 AM 50.0 °F 25.0 °F 38% 30.20 in 10.0 mi West 5.8 mph - N/A   Clear
6:52 AM 48.0 °F 25.0 °F 41% 30.21 in 10.0 mi WSW 3.5 mph - N/A   Clear
7:52 AM 52.0 °F 26.1 °F 37% 30.23 in 10.0 mi WSW 5.8 mph - N/A   Clear
8:52 AM 57.0 °F 26.1 °F 30% 30.24 in 10.0 mi Calm Calm - N/A   Clear
9:52 AM 61.0 °F 25.0 °F 25% 30.25 in 10.0 mi SW 5.8 mph - N/A   Clear
10:52 AM 64.0 °F 25.0 °F 23% 30.23 in 10.0 mi South 3.5 mph - N/A   Clear
11:52 AM 66.9 °F 24.1 °F 20% 30.19 in 10.0 mi East 3.5 mph - N/A   Clear
12:52 PM 70.0 °F 28.0 °F 21% 30.16 in 10.0 mi Variable 4.6 mph - N/A   Clear
1:52 PM 72.0 °F 28.9 °F 20% 30.14 in 10.0 mi ESE 3.5 mph - N/A   Clear
2:52 PM 73.0 °F 28.0 °F 19% 30.13 in 10.0 mi Calm Calm - N/A   Clear
3:52 PM 73.9 °F 23.0 °F 15% 30.12 in 10.0 mi North 6.9 mph - N/A   Clear
4:52 PM 69.1 °F 25.0 °F 19% 30.13 in 10.0 mi Calm Calm - N/A   Clear
5:52 PM 64.9 °F 26.1 °F 23% 30.14 in 10.0 mi NNW 3.5 mph - N/A   Clear
6:52 PM 64.9 °F 25.0 °F 22% 30.15 in 10.0 mi North 4.6 mph - N/A   Clear
7:52 PM 62.1 °F 25.0 °F 24% 30.15 in 10.0 mi North 4.6 mph - N/A   Clear
8:52 PM 60.1 °F 25.0 °F 26% 30.17 in 10.0 mi WNW 6.9 mph - N/A   Clear
10:52 PM 55.9 °F 25.0 °F 30% 30.18 in 10.0 mi WNW 4.6 mph - N/A   Clear
11:52 PM 55.9 °F 25.0 °F 30% 30.18 in 10.0 mi NNW 4.6 mph - N/A   Clear